OneWeb SL0049

operational
NORAD ID: 45154 Int'l Des: 2020-008 Owner: ONEWEB Country: UK Constellation: oneweb
LEOCIRCULARPOLARONEWEB_TYPE

关于 OneWeb SL0049

正在加载描述...

实时位置

正在加载3D地球...

即将过境

高度历史

Altitude vs Time

uPlot chart will show altitude changes over time

两行轨道根数

1 45154U 20008Z 25351.49282693 -.00000667 00000-0 -19468-2 0 9999
2 45154 87.8807 72.5055 0001729 120.5603 239.5695 13.10374874284235
Epoch: Dec 17, 2025 • Age: 16 hours

当前状态

高度 1244.4 km
速度 7.23 km/s
星下点 -54.89°S, 78.29°W
发射日期 Feb 6, 2020
运行时间 5.8 years
类型 internet

技术详情

分类 Payload
质量 148.00 kg
干质量 140.00 kg
总质量 148.00 kg
长度 1.30 m
直径 1.00 m
跨度 5.00 m
形状 Trapezoid+2 pan
制造商 ONEWUS
平台类型 ARROW
阶段状态 In Orbit
所有者/国家 ONEWEB/UK

大型星座

Loading constellations...